Location: *
(46.0770°N, 1.6444°E)
Time: 13:30:12
(UTC+00:00)

Cosmos 1674 - Pass Details

Date: 16 September 2019
Orbit: 494 x 520 km, 82.5° (Epoch: 14 October)

Event Time Altitude Azimuth Distance (km) Brightness Sun altitude
Rises 20:27:34 0° 352° (N) 2,600 6.8 -24.4°
Reaches altitude 10° 20:29:42 10° 354° (N) 1,709 5.8 -24.7°
Enters shadow 20:31:57 34° 360° (N) 832 3.9 -25.0°
